Location: Landeleau
(48.2273°N, 3.7285°W)
Time: 05:19:38
(UTC+00:00)

STARLINK-1098 - Pass Details

Date: 30 March 2020
Orbit: 548 x 551 km, 53.0° (Epoch: 29 May)

Event Time Altitude Azimuth Distance (km) Brightness Sun altitude
Rises 19:55:36 0° 295° (WNW) 2,724 9.3 -12.5°
Reaches altitude 10° 19:57:51 10° 297° (WNW) 1,828 7.8 -12.9°
Maximum altitude 20:02:00 73° 22° (NNE) 578 3.7 -13.5°
Enters shadow 20:04:28 23° 105° (ESE) 1,180 4.7 -13.9°
